Regional Weather Roundup
Issued by NWS

Home | Current Version | Previous Version | Text Only | Print | Product List | Glossary On
Versions: 1 2 3 4 5 6 7 8 9 10 11 12 13 14 15 16 17 18 19 20 21 22 23 24 25 26 27
000
ASUS44 KJAN 240510
RWRMS

MISSISSIPPI HOURLY WEATHER ROUNDUP
NATIONAL WEATHER SERVICE JACKSON MS
1200 AM CDT WED MAY 24 2017

NOTE: "FAIR: INDICATES FEW OR NO CLOUDS BELOW 12,000 FEET WITH NO
SIGNIFICANT WEATHER AND/OR OBSTRUCTIONS TO VISIBILITY.

MSZ001>002-007>008-010>013-018>021-025>028-034>036-240600-
NORTHWEST MISSISSIPPI

CITY           SKY/WX    TMP DP  RH WIND       PRES   REMARKS
CLARKSDALE       N/A     63  63 100 MISG      29.69F
CLEVELAND      LGT RAIN  65  63  93 N8        29.69F
GREENWOOD      LGT RAIN  66  63  90 SW9       29.70S
GREENVILLE     LGT RAIN  63  60  90 W8        29.69F
OXFORD         FAIR      64  54  68 NW8       29.68F
TUNICA         RAIN      59  57  94 N5        29.69F
WINONA         LGT RAIN  65  64  97 SW5       29.71R
$$

MSZ003>006-009-014>017-022>024-029>033-037>039-240600-
NORTHEAST MISSISSIPPI

CITY           SKY/WX    TMP DP  RH WIND       PRES   REMARKS
COLUMBUS AFB   PTCLDY    64  64 100 SW7       29.67F
CORINTH        CLOUDY    64  63  94 CALM      29.65F
GOLDN TRIANGLE PTCLDY    64  61  88 SW5       29.65S
STARKVILLE     FAIR      63  63 100 CALM      29.70F
TUPELO         CLOUDY    66  62  87 S5        29.66F
$$

MSZ040-058-240600-
CENTRAL MISSISSIPPI

CITY           SKY/WX    TMP DP  RH WIND       PRES   REMARKS
JACKSON INTL   CLOUDY    66  63  90 S5        29.73S
JACKSON HAWKNS CLOUDY    66  62  87 W5        29.73F
MADISON        FAIR      64  61  88 CALM      29.73R
MERIDIAN KEY   CLOUDY    69  66  90 W3        29.72F
MERIDIAN NAS   PTCLDY    68  63  84 SW5       29.72S
VICKSBURG VKS  CLOUDY    64  63  94 CALM      29.72F
$$

MSZ059>079-240600-
SOUTH MISSISSIPPI

CITY           SKY/WX    TMP DP  RH WIND       PRES   REMARKS
COLUMBIA       FAIR      64  64 100 E3        29.76F
HATTIESBURG    PTCLDY    67  65  93 NW3       29.74F
LAUREL         FAIR      67  67 100 W5        29.74F
MCCOMB         CLOUDY    67  64  90 CALM      29.75F
NATCHEZ        CLOUDY    68  63  84 NW12G18   29.77S
PINE BELT      NOT AVBL
$$

MSZ080>082-240600-
COASTAL MISSISSIPPI

CITY           SKY/WX    TMP DP  RH WIND       PRES   REMARKS
BILOXI         PTCLDY    74  69  84 NW7       29.72F
PASCAGOULA     MOCLDY    73  69  87 CALM      29.73R
GULFPORT       MOCLDY    73  70  90 N3        29.72F
$$

LAZ007>009-015>016-023>026-240600-
NORTHEAST LOUISIANA

CITY           SKY/WX    TMP DP  RH WIND       PRES   REMARKS
BASTROP        CLOUDY    62  62  97 SW3       29.75R
TALLULAH/VBURG LGT RAIN  63  61  93 CALM      29.73F
VIDALIA        CLOUDY    67  60  77 NW13      29.77R
$$




USA.gov is the U.S. government's official web portal to all federal, state and local government web resources and services.